HEBL

Details ICAO HEBL (ABS)
Name ABU SIMBEL
Region Egypt
Timezone Africa/Cairo (UTC+2.0)
Plans Departing 42
Arriving 45
Stats Elevation 616 ft / 188 m (AMSL)
Location 22.375951° 31.611721°
Runways 1
Magnetic Variation 3.869° E
Sunrise 2018-05-23 03:12:19 UTC / 2018-05-23 05:12:19 Local
Sunset 2018-05-23 16:31:08 UTC / 2018-05-23 18:31:08 Local
Advertisement - Login to hide

Runways

ID Width Length Bearing (true) Bearing (mag) Surface Threshold Offset Overrun Length
15 148 ft / 45 m 9,873 ft / 3,009 m 150.09° 146.22° Asphalt 0 ft / 0 m 197 ft / 60 m
33 148 ft / 45 m 9,873 ft / 3,009 m 330.10° 326.23° Asphalt 0 ft / 0 m 197 ft / 60 m

Approach Navaids

Runway Type Ident Frequency Range Bearing (true) Bearing (mag) Slope Elevation
33 Localiser IABS 109.70 MHz 18 nm / 33 km 330.11° 326.25° - 623 ft / 190 m (AMSL)
33 Glidescope IABS 109.70 MHz 10 nm / 19 km 330.10° 326.23° 3.00° 670 ft / 204 m (AMSL)
33 DME IABS 109.70 MHz 18 nm / 33 km - - - 670 ft / 204 m (AMSL)

Map

Weather


0- 5 10 15 20 25 30 35+ Temperature / ° C

Clouds and Precipitation
Forecast for 2018-05-22 18:00 UTC. Updated 5 hours ago

Ground ~20,000 ft ~40,000 ft Winds

METAR

HEBL 222100Z 36004KT CAVOK 34/07 Q1010 NOSIG

TAF

Not found

Frequencies

Tower 118.10 MHz TWR/APP
Warning: Do not use this data for real-world aviation or navigation. No guarantee of current accuracy is given.